| time (UTC) | temp F | wind direction | speed knots | gust knots | rain 1hr in | rain 24hr in | rain mn in | humidity % | barometer mb |
| 20260902103020 | 66 | 0.0 | 0.0 | 0.00 | 0.00 | 0.00 | 94 | 1013.7 | |
| 20260902102020 | 66 | 0.0 | 0.0 | 0.00 | 0.00 | 0.00 | 94 | 1014.2 | |
| 20260902101041 | 66 | 0.0 | 0.0 | 0.00 | 0.00 | 0.00 | 94 | 1014.2 | |
| 20260902100022 | 66 | 0.0 | 0.0 | 0.00 | 0.00 | 0.00 | 93 | 1014.3 | |
| 20260902095041 | 66 | 0.0 | 0.9 | 0.00 | 0.00 | 0.00 | 93 | 1014.4 | |
| 20260902094043 | 66 | 0.0 | 0.0 | 0.00 | 0.01 | 0.00 | 93 | 1014.3 | |
| 20260902093040 | 66 | 0.0 | 0.0 | 0.00 | 0.06 | 0.00 | 93 | 1014.5 | |
| 20260902092021 | 66 | 0.0 | 0.0 | 0.00 | 0.08 | 0.00 | 93 | 1014.5 | |
| 20260902091020 | 66 | 0.0 | 0.0 | 0.00 | 0.08 | 0.00 | 93 | 1014.3 | |
| 20260902090041 | 66 | 0.0 | 0.0 | 0.00 | 0.08 | 0.00 | 93 | 1014.5 | |
| 20260902085021 | 66 | 0.0 | 0.0 | 0.00 | 0.08 | 0.00 | 93 | 1014.5 | |
| 20260902084020 | 67 | 0.0 | 0.0 | 0.00 | 0.08 | 0.00 | 93 | 1014.6 | |
| 20260902083040 | 67 | 0.0 | 0.0 | 0.00 | 0.08 | 0.00 | 93 | 1014.7 | |
| 20260902082020 | 66 | 0.0 | 0.0 | 0.00 | 0.08 | 0.00 | 93 | 1014.4 | |
| 20260902081021 | 66 | 0.0 | 0.0 | 0.00 | 0.08 | 0.00 | 93 | 1014.5 | |
| 20260902080020 | 67 | 0.0 | 2.6 | 0.00 | 0.08 | 0.00 | 93 | 1014.5 | |
| 20260902075042 | 67 | 0.0 | 0.0 | 0.00 | 0.08 | 0.00 | 93 | 1014.4 | |
| 20260902074020 | 67 | 0.0 | 0.0 | 0.00 | 0.08 | 0.00 | 93 | 1014.4 | |
| 20260902073022 | 67 | 0.0 | 0.0 | 0.00 | 0.08 | 0.00 | 93 | 1014.3 | |
| 20260902072020 | 67 | 0.0 | 0.9 | 0.00 | 0.08 | 0.00 | 93 | 1014.3 | |
| 20260902071023 | 67 | 0.0 | 0.0 | 0.00 | 0.09 | 0.00 | 92 | 1014.1 | |
| 20260902070020 | 67 | 0.0 | 1.7 | 0.00 | 0.13 | 0.00 | 92 | 1014.2 | |
| 20260902065021 | 68 | 0.0 | 1.7 | 0.00 | 0.14 | 0.00 | 92 | 1014.1 | |
| 20260902064020 | 68 | 0.0 | 0.0 | 0.00 | 0.14 | 0.00 | 92 | 1014.2 | |
| 20260902063021 | 68 | 0.0 | 0.0 | 0.00 | 0.14 | 0.00 | 92 | 1014.3 | |
| 20260902062040 | 68 | 0.0 | 0.0 | 0.00 | 0.14 | 0.00 | 92 | 1014.5 | |
| 20260902061020 | 68 | 0.0 | 0.0 | 0.00 | 0.14 | 0.00 | 92 | 1014.4 | |
| 20260902060020 | 68 | 0.0 | 0.0 | 0.00 | 0.14 | 0.00 | 92 | 1014.2 | |
| 20260902055020 | 68 | 0.0 | 0.0 | 0.00 | 0.14 | 0.00 | 92 | 1014.3 | |
| 20260902054020 | 68 | 0.0 | 0.0 | 0.00 | 0.14 | 0.00 | 91 | 1014.3 | |
| 20260902053020 | 68 | 0.0 | 0.0 | 0.00 | 0.14 | 0.00 | 91 | 1014.3 | |
| 20260902052020 | 68 | 0.0 | 0.0 | 0.00 | 0.14 | 0.00 | 91 | 1014.1 | |
| 20260902051040 | 68 | 0.0 | 0.0 | 0.00 | 0.14 | 0.00 | 91 | 1014.1 | |
| 20260902050021 | 69 | 0.0 | 0.0 | 0.00 | 0.14 | 0.00 | 91 | 1014.1 | |
| 20260902045021 | 69 | 0.0 | 0.0 | 0.00 | 0.14 | 0.00 | 91 | 1014.1 | |
| 20260902044021 | 69 | 0.0 | 0.0 | 0.00 | 0.14 | 0.00 | 90 | 1014.1 | |
| 20260902043024 | 69 | 0.0 | 0.0 | 0.00 | 0.14 | 0.00 | 90 | 1014.0 | |
| 20260902042022 | 69 | 0.0 | 0.0 | 0.00 | 0.14 | 0.00 | 90 | 1013.9 | |
| 20260902041021 | 69 | 0.0 | 0.0 | 0.00 | 0.14 | 0.00 | 90 | 1013.9 | |
| 20260902040019 | 70 | 0.0 | 0.0 | 0.00 | 0.15 | 0.15 | 90 | 1013.9 | |
| 20260902035022 | 70 | 0.0 | 0.0 | 0.00 | 0.15 | 0.15 | 90 | 1013.9 | |
| 20260902034022 | 70 | 0.0 | 0.0 | 0.00 | 0.15 | 0.15 | 89 | 1013.8 | |
| 20260902033022 | 70 | 0.0 | 0.0 | 0.00 | 0.15 | 0.15 | 89 | 1013.7 | |
| 20260902032021 | 70 | 0.0 | 0.0 | 0.00 | 0.15 | 0.15 | 89 | 1013.9 | |
| 20260902031041 | 70 | 0.0 | 0.9 | 0.00 | 0.15 | 0.15 | 88 | 1014.0 | |
| 20260902030021 | 71 | 0.0 | 1.7 | 0.00 | 0.15 | 0.15 | 88 | ||
| 20260902025021 | 71 | 113 | 0.9 | 2.6 | 0.00 | 0.15 | 0.15 | 88 | |
| 20260902024022 | 71 | 0.0 | 0.0 | 0.00 | 0.15 | 0.15 | 88 | ||
| 20260902023042 | 71 | 90 | 0.9 | 2.6 | 0.00 | 0.15 | 0.15 | 87 | 1014.0 |
| 20260902022021 | 72 | 135 | 0.9 | 2.6 | 0.00 | 0.15 | 0.15 | 87 | 1014.0 |
| 20260902021021 | 72 | 45 | 0.9 | 2.6 | 0.00 | 0.15 | 0.15 | 87 | 1013.9 |
| 20260902020041 | 72 | 45 | 0.9 | 2.6 | 0.00 | 0.15 | 0.15 | 87 | 1014.1 |
| 20260902015021 | 72 | 45 | 0.9 | 3.5 | 0.00 | 0.15 | 0.15 | 87 | 1014.0 |
| 20260902014021 | 72 | 45 | 0.9 | 2.6 | 0.00 | 0.15 | 0.15 | 87 | 1013.9 |
| 20260902013021 | 72 | 0.0 | 0.0 | 0.00 | 0.15 | 0.15 | 87 | 1013.8 | |
| 20260902012022 | 72 | 0.0 | 0.9 | 0.00 | 0.15 | 0.15 | 87 | 1013.7 | |
| 20260902011022 | 72 | 0.0 | 1.7 | 0.00 | 0.15 | 0.15 | 86 | 1013.6 | |
| 20260902010101 | 73 | 0.0 | 2.6 | 0.00 | 0.15 | 0.15 | 86 | 1013.4 | |
| 20260902005041 | 73 | 0.0 | 1.7 | 0.00 | 0.15 | 0.15 | 86 | 1013.3 | |
| 20260902004021 | 73 | 45 | 0.9 | 3.5 | 0.00 | 0.15 | 0.15 | 86 | 1013.0 |
| 20260902003121 | 74 | 0.0 | 2.6 | 0.00 | 0.15 | 0.15 | 85 | 1012.7 | |
| 20260902002021 | 74 | 0.0 | 2.6 | 0.00 | 0.15 | 0.15 | 85 | 1012.5 | |
| 20260902001020 | 74 | 0.0 | 4.3 | 0.00 | 0.15 | 0.15 | 85 | 1012.4 | |
| 20260902000041 | 75 | 68 | 0.9 | 4.3 | 0.00 | 0.15 | 0.15 | 84 | 1012.4 |
| 20260901235020 | 75 | 0.0 | 1.7 | 0.00 | 0.15 | 0.15 | 84 | 1012.3 | |
| 20260901234041 | 76 | 68 | 0.9 | 4.3 | 0.00 | 0.15 | 0.15 | 83 | 1012.3 |
| 20260901233021 | 76 | 45 | 0.9 | 2.6 | 0.00 | 0.15 | 0.15 | 83 | 1012.6 |
| 20260901232021 | 77 | 45 | 1.7 | 6.1 | 0.00 | 0.15 | 0.15 | 83 | 1012.5 |
| 20260901231041 | 77 | 45 | 1.7 | 4.3 | 0.00 | 0.16 | 0.15 | 82 | 1012.5 |
| 20260901230023 | 78 | 45 | 0.9 | 4.3 | 0.00 | 0.17 | 0.15 | 81 | 1012.5 |
| 20260901225020 | 78 | 45 | 0.9 | 1.7 | 0.00 | 0.17 | 0.15 | 81 | 1012.7 |
| 20260901224020 | 78 | 45 | 1.7 | 3.5 | 0.00 | 0.17 | 0.15 | 81 | 1012.7 |
| 20260901223020 | 78 | 135 | 0.9 | 2.6 | 0.00 | 0.17 | 0.15 | 81 | 1012.7 |
| 20260901222042 | 78 | 68 | 0.9 | 2.6 | 0.00 | 0.17 | 0.15 | 80 | 1012.6 |
| 20260901221020 | 79 | 45 | 0.9 | 3.5 | 0.00 | 0.17 | 0.15 | 80 | 1012.4 |
| 20260901220020 | 79 | 68 | 0.9 | 1.7 | 0.00 | 0.17 | 0.15 | 79 | 1012.4 |
| 20260901215020 | 79 | 90 | 0.9 | 3.5 | 0.00 | 0.17 | 0.15 | 79 | 1012.4 |
| 20260901214022 | 80 | 68 | 1.7 | 3.5 | 0.00 | 0.17 | 0.15 | 78 | 1012.3 |
| 20260901213020 | 80 | 23 | 0.9 | 1.7 | 0.00 | 0.17 | 0.15 | 77 | 1012.3 |
| 20260901212020 | 81 | 68 | 1.7 | 4.3 | 0.00 | 0.17 | 0.15 | 76 | 1012.1 |
| 20260901211020 | 82 | 0.0 | 1.7 | 0.00 | 0.17 | 0.15 | 74 | 1012.3 | |
| 20260901210020 | 82 | 0.0 | 0.0 | 0.00 | 0.17 | 0.15 | 74 | 1012.4 | |
| 20260901205020 | 81 | 0.0 | 0.9 | 0.00 | 0.17 | 0.15 | 76 | 1012.4 | |
| 20260901204023 | 81 | 0.0 | 0.0 | 0.00 | 0.17 | 0.15 | 75 | 1012.4 | |
| 20260901203140 | 82 | 0.0 | 0.9 | 0.00 | 0.17 | 0.15 | 74 | 1012.3 | |
| 20260901202020 | 82 | 0.0 | 2.6 | 0.00 | 0.17 | 0.15 | 73 | 1012.3 | |
| 20260901201020 | 81 | 0.0 | 1.7 | 0.00 | 0.17 | 0.15 | 76 | 1012.2 | |
| 20260901200020 | 81 | 0.0 | 0.9 | 0.00 | 0.17 | 0.15 | 75 | 1012.2 | |
| 20260901195020 | 81 | 0.0 | 0.9 | 0.00 | 0.17 | 0.15 | 76 | 1012.2 | |
| 20260901194020 | 80 | 0.0 | 0.9 | 0.00 | 0.17 | 0.15 | 78 | 1012.3 | |
| 20260901193020 | 79 | 0.0 | 0.9 | 0.00 | 0.17 | 0.15 | 79 | 1012.3 | |
| 20260901192022 | 79 | 0.0 | 1.7 | 0.00 | 0.17 | 0.15 | 79 | 1012.4 | |
| 20260901191020 | 78 | 0.0 | 0.9 | 0.00 | 0.17 | 0.15 | 80 | 1012.3 | |
| 20260901190019 | 77 | 45 | 4.3 | 7.8 | 0.00 | 0.17 | 0.15 | 81 | 1012.3 |
| 20260901185020 | 77 | 45 | 0.9 | 3.5 | 0.00 | 0.17 | 0.15 | 81 | 1012.3 |
| 20260901184020 | 78 | 45 | 4.3 | 6.1 | 0.00 | 0.17 | 0.15 | 81 | 1012.2 |
| 20260901183021 | 78 | 23 | 3.5 | 6.1 | 0.00 | 0.17 | 0.15 | 80 | 1012.3 |
| 20260901182021 | 79 | 45 | 2.6 | 6.1 | 0.00 | 0.17 | 0.15 | 79 | 1012.1 |
| 20260901181021 | 80 | 23 | 4.3 | 8.7 | 0.00 | 0.17 | 0.15 | 78 | 1011.9 |
| 20260901180022 | 81 | 338 | 1.7 | 3.5 | 0.00 | 0.17 | 0.15 | 76 | 1011.8 |
| 20260901175021 | 81 | 338 | 1.7 | 4.3 | 0.00 | 0.17 | 0.15 | 76 | 1011.6 |
| 20260901174021 | 80 | 0 | 0.9 | 3.5 | 0.00 | 0.17 | 0.15 | 77 | 1011.6 |
| 20260901173021 | 78 | 45 | 1.7 | 4.3 | 0.00 | 0.17 | 0.15 | 81 | 1011.6 |
| 20260901172021 | 79 | 338 | 2.6 | 3.5 | 0.00 | 0.17 | 0.15 | 80 | 1011.6 |
| 20260901171021 | 79 | 338 | 3.5 | 5.2 | 0.00 | 0.18 | 0.15 | 79 | 1011.6 |
| 20260901170021 | 80 | 338 | 1.7 | 3.5 | 0.00 | 0.18 | 0.15 | 78 | 1011.6 |
| 20260901165021 | 80 | 23 | 1.7 | 3.5 | 0.00 | 0.18 | 0.15 | 77 | 1011.6 |
| 20260901164022 | 80 | 0.0 | 1.7 | 0.00 | 0.18 | 0.15 | 79 | 1011.6 | |
| 20260901163021 | 79 | 23 | 1.7 | 2.6 | 0.00 | 0.18 | 0.15 | 78 | 1011.6 |
| 20260901162021 | 80 | 68 | 1.7 | 4.3 | 0.00 | 0.18 | 0.15 | 77 | 1011.5 |
| 20260901161021 | 78 | 0.0 | 0.9 | 0.00 | 0.18 | 0.15 | 82 | 1011.5 | |
| 20260901160021 | 77 | 45 | 0.9 | 2.6 | 0.00 | 0.18 | 0.15 | 81 | 1011.6 |
| 20260901155022 | 79 | 23 | 1.7 | 4.3 | 0.00 | 0.18 | 0.15 | 78 | 1011.7 |
| 20260901154021 | 78 | 0.0 | 0.9 | 0.00 | 0.18 | 0.15 | 83 | 1011.7 | |
| 20260901153021 | 76 | 0.0 | 0.0 | 0.00 | 0.19 | 0.15 | 86 | 1011.8 | |
| 20260901152021 | 74 | 158 | 1.7 | 3.5 | 0.00 | 0.19 | 0.15 | 87 | 1011.6 |
| 20260901151020 | 73 | 0.0 | 1.7 | 0.00 | 0.19 | 0.15 | 90 | 1011.7 | |
| 20260901150021 | 72 | 135 | 0.9 | 1.7 | 0.00 | 0.19 | 0.15 | 90 | 1011.8 |
| 20260901145021 | 71 | 0.0 | 0.0 | 0.00 | 0.20 | 0.15 | 91 | 1011.9 | |
| 20260901144021 | 71 | 68 | 0.9 | 3.5 | 0.00 | 0.20 | 0.15 | 91 | 1012.0 |
| 20260901143104 | 0 | 0.0 | 0.0 | 0.00 | 0.20 | 0.15 | 91 | ||
| 20260901142020 | 71 | 23 | 0.9 | 1.7 | 0.00 | 0.20 | 0.15 | 91 | 1012.0 |
| 20260901141020 | 71 | 45 | 0.9 | 1.7 | 0.00 | 0.20 | 0.15 | 91 | 1011.8 |
| 20260901140021 | 71 | 68 | 0.9 | 2.6 | 0.00 | 0.20 | 0.15 | 91 | 1011.8 |
| 20260901135041 | 71 | 68 | 0.9 | 4.3 | 0.00 | 0.20 | 0.15 | 91 | 1011.8 |
| 20260901134041 | 71 | 0.0 | 0.9 | 0.00 | 0.20 | 0.15 | 91 | 1011.7 | |
| 20260901133021 | 71 | 0.0 | 0.9 | 0.00 | 0.20 | 0.15 | 92 | 1011.8 | |
| 20260901132020 | 71 | 68 | 1.7 | 4.3 | 0.00 | 0.20 | 0.15 | 91 | 1011.8 |
| 20260901131020 | 71 | 0.0 | 0.9 | 0.00 | 0.20 | 0.15 | 92 | 1011.8 | |
| 20260901130021 | 71 | 0.0 | 0.9 | 0.00 | 0.20 | 0.15 | 93 | 1012.0 | |
| 20260901125020 | 70 | 0.0 | 0.0 | 0.00 | 0.20 | 0.15 | 94 | 1011.9 | |
| 20260901124020 | 69 | 0.0 | 0.9 | 0.00 | 0.20 | 0.15 | 93 | 1011.9 | |
| 20260901123020 | 69 | 0.0 | 0.0 | 0.00 | 0.20 | 0.15 | 94 | 1012.2 | |
| 20260901122020 | 68 | 0.0 | 0.0 | 0.00 | 0.20 | 0.15 | 93 | 1012.1 | |
| 20260901121020 | 68 | 0.0 | 0.9 | 0.00 | 0.20 | 0.15 | 93 | 1012.4 | |
| 20260901120020 | 68 | 0.0 | 1.7 | 0.00 | 0.20 | 0.15 | 93 | 1012.4 | |
| 20260901115020 | 68 | 0.0 | 1.7 | 0.00 | 0.20 | 0.15 | 93 | 1012.4 | |
| 20260901114020 | 68 | 68 | 0.9 | 2.6 | 0.00 | 0.20 | 0.15 | 93 | 1012.3 |
| 20260901113023 | 68 | 68 | 0.9 | 2.6 | 0.00 | 0.20 | 0.15 | 93 | 1012.4 |
| 20260901112020 | 68 | 0.0 | 1.7 | 0.00 | 0.20 | 0.15 | 93 | 1012.5 | |
| 20260901111040 | 68 | 0.0 | 0.0 | 0.00 | 0.20 | 0.15 | 93 | 1012.4 | |
| 20260901110103 | 68 | 0.0 | 1.7 | 0.00 | 0.20 | 0.15 | 93 | 1012.3 | |
| 20260901105021 | 68 | 68 | 0.9 | 1.7 | 0.00 | 0.20 | 0.15 | 93 | 1012.3 |
| 20260901104020 | 69 | 0.0 | 2.6 | 0.01 | 0.20 | 0.15 | 93 | 1012.2 |